Regional Weather Roundup
Issued by NWS

Home | Current Version | Previous Version | Graphics & Text | Print | Product List | Glossary On
Versions: 1 2 3 4 5 6 7 8 9 10 11 12 13 14 15 16 17 18 19 20 21 22 23 24 25 26 27 28 29 30 31 32 33 34 35 36 37 38 39 40 41 42 43 44 45 46 47 48 49 50
000
ASUS45 KCYS 040010
RWRWY

WYOMING REGIONAL WEATHER ROUNDUP
NATIONAL WEATHER SERVICE CHEYENNE WY
500 PM MST TUE MAR 03 2015

NOTE:  "FAIR" INDICATES FEW OR NO CLOUDS BELOW 12,000 FEET
WITH NO SIGNIFICANT WEATHER AND/OR OBSTRUCTIONS TO VISIBILITY.

WYZ001-040100-
YELLOWSTONE NATIONAL PARK

CITY           SKY/WX    TMP DP  RH WIND       PRES   REMARKS
LK YELLOWSTONE   N/A     14  -6  40 W7        29.74S WCI   4
6HR MIN TEMP:  11; 6HR MAX TEMP:  16;

W YELLOWSTONE  NOT AVBL

$$
WYZ002>013-054>058-071-098>099-040100-
NORTHERN WYOMING

CITY           SKY/WX    TMP DP  RH WIND       PRES   REMARKS
JACKSON        SUNNY     19  -4  35 W8        29.80R WCI   9
CODY           FAIR      12   1  62 CALM      29.90F
GREYBULL       FAIR      20  -4  34 W14       29.96S WCI   7
6HR MIN TEMP:  13; 6HR MAX TEMP:  22; 6HR PCP: TRACE;

WORLAND        FAIR      18   1  47 NW8       29.95S WCI   8
6HR MIN TEMP:  14; 6HR MAX TEMP:  19; 6HR PCP: TRACE;

SHERIDAN       FAIR       8  -3  61 W9        29.98F WCI  -5
6HR MIN TEMP:   7; 6HR MAX TEMP:  12;

BUFFALO        MOCLDY     6  -2  69 NW10      29.92R WCI  -9
6HR MIN TEMP:   6; 6HR MAX TEMP:   9;

GILLETTE       MOCLDY     9  -2  61 NW10      29.93S WCI  -5
6HR MIN TEMP:   9; 6HR MAX TEMP:  14; 6HR PCP: TRACE;

HULETT         MOCLDY    10   0  61 NW7       29.94R WCI   0
NEWCASTLE      FAIR      14   0  52 NW13G24   29.93R WCI   0

$$
WYZ014>020-022>026-101>103-040100-
CENTRAL WYOMING

CITY           SKY/WX    TMP DP  RH WIND       PRES   REMARKS
BIG PINEY      FAIR      26   5  40 N20       29.74R WCI  12
6HR MIN TEMP:  21; 6HR MAX TEMP:  29; 6HR PCP:  0.01;

PINEDALE       FAIR      21  12  68 NW7       29.75R WCI  13
DUBOIS         FAIR       7   1  78 S7        29.74R WCI  -5
LANDER         PTSUNNY   10   2  69 CALM      29.85R
6HR MIN TEMP:  11; 6HR MAX TEMP:  14; 6HR PCP:  0.04;

RIVERTON       FAIR      11   3  70 E7        29.87R WCI   0
6HR MIN TEMP:  11; 6HR MAX TEMP:  14; 6HR PCP: TRACE;

CASPER         FAIR      12   4  70 NW3       29.87R
6HR MIN TEMP:   9; 6HR MAX TEMP:  13; 6HR PCP:  0.01;

DOUGLAS        SNOW      11   7  84 N8        29.90R VSB 1/2 WCI  -1
6HR MIN TEMP:  11; 6HR MAX TEMP:  14; 6HR PCP: TRACE;


$$
WYZ021-027>030-104>119-040100-
SOUTHERN WYOMING

CITY           SKY/WX    TMP DP  RH WIND       PRES   REMARKS
EVANSTON       FAIR      24  14  65 W10       29.80R WCI  14
6HR MIN TEMP:  24; 6HR MAX TEMP:  28; 6HR PCP: TRACE;

FORT BRIDGER   SNOW      24  23  96 NW15G22   29.82R VSB 1/4 WCI  11
ROCK SPRINGS   CLOUDY    13   8  81 NE7       29.74F WCI   3
6HR MIN TEMP:  13; 6HR MAX TEMP:  15; 6HR PCP:  0.01;

DIXON          CLOUDY    22  16  80 W9        29.79R WCI  11
RAWLINS        CLOUDY    10   3  73 N6        29.75S WCI   0
6HR MIN TEMP:   9; 6HR MAX TEMP:  15; 6HR PCP: TRACE;

SARATOGA       LGT SNOW  12   9  85 NW9       29.75R VSB 3/4 WCI   0
LARAMIE        FLURRIES  13   9  84 SE13      29.67R WCI  -2
6HR MIN TEMP:  13; 6HR MAX TEMP:  21; 6HR PCP: TRACE;

CHEYENNE       LGT SNOW  11   4  73 NE8       29.78S WCI  -1
6HR MIN TEMP:  11; 6HR MAX TEMP:  15; 6HR PCP: TRACE;

TORRINGTON     LGT SNOW  16   7  67 N10       29.92S WCI   4
6HR MIN TEMP:  16; 6HR MAX TEMP:  19; 6HR PCP: TRACE;

PINE BLUFFS    CLOUDY    14   9  79 N12       29.85S WCI   0

$$



USA.gov is the U.S. government's official web portal to all federal, state and local government web resources and services.